#timestamp,LO_Frequency,Hit,StdDev 
1582992015.1,286047000.0,N
1582992016.0,286047000.0,N
1582992035.8,286047001.8,N
1582992055.7,286047000.0,N
1582992075.5,286046999.2,N
1582992095.3,286046999.5,N
1582992115.2,286046999.5,N
1582992135.0,286046997.0,N
1582992135.9,286046997.0,N
1582992155.7,286046996.5,N
1582992175.6,286046996.7,N
1582992195.4,286046997.7,N
1582992215.3,286046999.0,N
1582992235.1,286046999.8,N
1582992236.0,286046999.8,N
1582992255.8,286046999.8,N
1582992275.7,286046999.9,N
1582992295.5,286047002.4,N
1582992315.3,286046999.8,N
1582992335.2,286047002.3,N
1582992355.0,286047001.9,N
1582992355.9,286047001.9,N
1582992375.8,286047001.9,N
1582992395.6,286047001.4,N
1582992415.4,286047002.3,N
1582992435.3,286047001.5,N
1582992455.1,286047003.2,N
1582992475.9,286047003.2,N
1582992495.7,286047002.6,N
1582992515.5,286047000.0,N
1582992535.4,286047005.4,N
1582992555.2,286047007.3,Y
1582992575.0,286047010.8,P
1582992576.0,286047010.8,N
1582992595.8,286047017.1,P
1582992615.6,286047017.7,N
1582992635.5,286047019.3,Y
1582992655.3,286047005.5,P
1582992675.1,286047002.1,N
1582992695.9,286047002.5,N
1582992715.7,286047001.9,N
1582992735.6,286047000.2,N
1582992755.4,286046998.2,N
1582992775.2,286046996.8,N
1582992795.1,286046993.3,N
1582992796.0,286046993.3,N
1582992815.8,286046995.1,N
1582992835.7,286046994.1,N
1582992855.5,286046992.6,N
1582992875.3,286046990.9,N
1582992895.2,286046989.9,N
1582992915.0,286046987.1,N
1582992915.9,286046987.1,N
1582992935.7,286046983.8,N
1582992955.6,286046984.9,N
1582992975.4,286046982.1,N
1582992995.3,286046984.5,N
1582993015.1,286046980.9,N
1582993016.0,286046980.9,N
1582993035.8,286046981.0,N
1582993055.7,286046981.5,N
1582993075.5,286046981.8,N
1582993095.4,286046981.6,N
1582993115.2,286046980.3,N
1582993135.0,286046977.4,N
1582993135.9,286046977.4,N
1582993155.8,286046977.8,N
1582993175.6,286046980.4,N
1582993195.4,286046977.9,N
1582993215.3,286046980.4,N
1582993235.1,286046980.2,N
1582993255.9,286046979.2,Y
1582993275.7,286046993.9,P
1582993295.6,286046993.6,N
1582993315.4,286046991.8,N
1582993335.2,286046992.5,N
1582993355.1,286046992.6,N
1582993356.0,286046992.6,N
1582993375.8,286046992.6,N
1582993395.6,286046992.0,Y
1582993415.5,286046998.5,P
1582993435.3,286046998.1,N
1582993455.2,286047000.8,N
1582993475.9,286047000.2,N
1582993495.7,286047001.3,N
1582993515.6,286047002.7,N
1582993535.4,286047000.6,N
1582993555.3,286047001.6,N
1582993575.1,286047002.4,N
1582993576.0,286047002.4,N
1582993595.8,286046999.8,N
1582993615.7,286046999.7,N
1582993635.5,286047002.3,N
1582993655.3,286047003.9,N
1582993675.2,286047002.1,N
1582993695.0,286047001.5,N
1582993695.9,286047001.5,N
1582993715.8,286047003.7,N
1582993735.6,286047004.3,N
1582993755.4,286047004.0,N
1582993775.3,286047004.4,N
1582993795.1,286047001.4,N
1582993815.9,286047002.0,N
1582993835.7,286047000.1,N
1582993855.5,286047002.0,N
1582993875.4,286047002.0,N
1582993895.2,286047001.6,N
1582993915.1,286047002.3,N
1582993916.0,286047002.3,N
1582993935.8,286047004.4,N
1582993955.6,286047002.3,N
1582993975.5,286047001.6,N
1582993995.3,286047002.4,N
1582994015.1,286046999.7,N
1582994035.9,286046999.7,N
1582994055.7,286046999.7,N
1582994075.6,286047000.4,N
1582994095.4,286047000.2,N
1582994115.2,286046998.4,N
1582994135.1,286046998.1,N
1582994136.0,286046998.1,N
1582994155.8,286046998.2,N
1582994175.7,286047000.7,N
1582994195.5,286047000.8,N
1582994215.3,286046998.4,N
1582994235.2,286046998.1,N
1582994255.0,286047000.2,N
1582994255.9,286047000.2,N
1582994275.7,286047001.2,N
1582994295.6,286047000.7,N
1582994315.4,286046999.9,N
1582994335.3,286046999.7,N
1582994355.1,286047001.6,N
1582994375.8,286047001.9,N
1582994395.7,286047001.5,N
1582994415.5,286046999.8,N
1582994435.4,286047002.4,N
1582994455.2,286047001.4,N
1582994475.0,286047002.6,N
1582994475.9,286047002.6,N
1582994495.8,286046999.8,N
1582994515.6,286047001.0,N
1582994535.4,286047001.0,N
1582994555.3,286047000.9,N
1582994575.1,286047002.4,N
1582994595.9,286047002.5,N
1582994615.7,286046999.9,N
1582994635.5,286047000.2,N
1582994655.4,286047002.2,N
1582994675.2,286047002.8,N
1582994695.1,286047000.7,N
1582994696.0,286047000.7,N
1582994715.8,286047000.0,N
1582994735.6,286047002.1,N
1582994755.5,286047002.8,N
1582994775.3,286047004.0,Y
1582994795.2,286046999.8,P
1582994815.9,286047002.4,P
1582994835.7,286046999.8,N
1582994855.6,286047000.6,N
1582994875.4,286047000.1,N
1582994895.2,286047002.4,N
1582994915.1,286047002.3,N
1582994916.0,286047002.3,N
1582994935.8,286047000.0,N
1582994955.7,286047000.3,N
1582994975.5,286047001.9,N
1582994995.3,286047002.2,N
1582995015.2,286047000.5,N
1582995035.0,286047001.0,N
1582995035.9,286047001.0,N
1582995055.8,286047000.1,N
1582995075.6,286047000.4,N
1582995095.4,286047000.7,N
1582995115.3,286047002.7,N
1582995135.1,286047002.2,N
1582995155.9,286047000.0,N
1582995175.7,286047001.8,N
1582995195.5,286047004.2,Y
1582995215.4,286047002.5,P
1582995235.2,286047000.4,N
1582995255.0,286047000.6,N
1582995255.9,286047000.6,N
1582995275.8,286047001.0,N
1582995295.6,286047002.3,Y
1582995315.5,286047001.0,P
1582995335.3,286046998.1,P
1582995355.1,286046999.2,N
1582995375.9,286046999.2,N
1582995395.7,286046997.2,N
1582995415.6,286046996.6,N
1582995435.4,286046999.0,N
1582995455.2,286046998.1,N
1582995475.1,286047000.6,N
1582995476.0,286047000.6,N
1582995495.8,286046999.4,N
1582995515.7,286046999.0,N
1582995535.5,286046999.0,N
1582995555.3,286046997.3,N
1582995575.2,286046997.6,N
1582995595.0,286046997.5,N
1582995595.9,286046997.5,N
